Simultaneous Nadir Overpasses (SNOs) Predictions

Prediction of SNOs near equator between AQUA and NPP Satellite Orbit:

Table of predicted SNOs near equator for the next 14.0 days since TLE Epoch: 8/23/2019
Index Date (AQUA) Time (AQUA) AQUA Lat,Lon Date (NPP) Time (NPP) NPP Lat,Lon Distance(km) Time Diff (sec)
1 08/26/2019 07:52:23 -5.08, -94.96 08/26/2019 07:42:42 -5.03, -95.13 19.13 581
2 08/26/2019 08:40:37 0.44, 73.65 08/26/2019 08:32:12 0.36, 73.21 49.04 505
3 08/26/2019 09:28:45 4.05,-117.74 08/26/2019 09:21:35 4.19,-118.44 78.58 430
4 08/29/2019 00:08:26 -3.51, 21.25 08/28/2019 23:59:11 -3.48, 20.99 28.87 555
5 08/29/2019 00:56:41 -1.08,-170.15 08/29/2019 00:48:41 -1.19,-170.67 58.56 480
6 08/29/2019 01:44:49 5.56, -1.54 08/29/2019 01:38:04 5.74, -2.32 87.96 405
7 08/31/2019 15:39:08 16.51, -33.36 08/31/2019 15:29:08 16.54, -33.56 22.10 600
8 08/31/2019 16:24:30 -2.00, 137.45 08/31/2019 16:15:40 -1.93, 137.11 38.38 530
9 08/31/2019 17:12:45 -2.58, -53.96 08/31/2019 17:05:10 -2.73, -54.55 68.14 455
10 08/31/2019 18:00:52 7.13, 114.67 08/31/2019 17:54:33 7.29, 113.81 97.23 379
11 09/03/2019 07:52:26 4.98, 85.04 09/03/2019 07:42:46 4.95, 84.88 18.07 580
12 09/03/2019 08:40:33 -0.50,-106.35 09/03/2019 08:32:09 -0.39,-106.77 48.17 505
13 09/03/2019 09:28:47 -4.15, 62.26 09/03/2019 09:21:38 -4.28, 61.57 77.60 429
14 09/06/2019 00:08:29 3.48,-158.77 09/05/2019 23:59:14 3.41,-159.00 27.92 555
15 09/06/2019 00:56:36 1.05, 9.86 09/06/2019 00:48:37 1.16, 9.35 57.74 479
16 09/06/2019 01:44:51 -5.64, 178.46 09/06/2019 01:38:07 -5.82, 177.69 87.02 404




NCC Satellite Simultaneous Nadir Overpasses (SNOs) Prediction Service
